Location: ????????
(55.4717°N, 39.1821°E)
Time: 20:22:05
(UTC+00:00)

Cosmos 1624 Rocket - Pass Details

Date: 14 April 2024
Orbit: 755 x 781 km, 74.0° (Epoch: 17 May)

Event Time Altitude Azimuth Distance (km) Brightness Sun altitude
Rises 00:43:42 0° 331° (NNW) 3,255 7.4 -12.9°
Reaches altitude 10° 00:46:06 10° 332° (NNW) 2,321 6.6 -12.6°
Maximum altitude 00:51:23 88° 246° (WSW) 773 4.0 -12.0°
Drops below altitude 10° 00:56:35 10° 155° (SSE) 2,289 6.3 -11.4°
Sets 00:58:56 0° 156° (SSE) 3,208 7.1 -11.2°
